Regional Weather Roundup
Issued by NWS

Home | Current Version | Previous Version | Graphics & Text | Print | Product List | Glossary On
Versions: 1 2 3 4 5 6 7 8 9 10 11 12 13 14 15 16 17 18 19 20 21 22 23 24 25 26 27
000
ASUS45 KBOU 192207
RWRCO

WEATHER ROUNDUP FOR COLORADO
NATIONAL WEATHER SERVICE DENVER/BOULDER CO
400 PM MDT TUE SEP 19 2017

NOTE: "FAIR" INDICATES FEW OR NO CLOUDS BELOW 12000 FEET WITH NO
SIGNIFICANT WEATHER AND/OR OBSTRUCTIONS TO VISIBILITY.

COZ001>005-013-030-031-192300-
...NORTHWEST COLORADO...

CITY           SKY/WX    TMP DP  RH WIND       PRES   REMARKS
CRAIG          CLOUDY    49  32  52 NW17G26   29.93R
HAYDEN         FAIR      53  33  46 W22       29.90R
MEEKER         CLOUDY    52  34  50 N22G29    29.88R
RABBIT EARS PA FAIR      43  32  65 W14G23    30.01S
STEAMBOAT SPGS PTSUNNY   54  33  44 W13G28    29.88R
WALDEN         FAIR      50  30  46 N30G37    29.90R
$$

COZ006>008-011-192300-
...WEST CENTRAL VALLEYS...

CITY           SKY/WX    TMP DP  RH WIND       PRES   REMARKS
GRAND JUNCTION FAIR      80  27  14 W25G37    29.75S
MONTROSE       FAIR      77  22  13 SW20G28   29.85F
EAGLE          FAIR      75  25  15 W22G39    29.80F
RIFLE          FAIR      78  24  13 W31G38    29.75F
DELTA          FAIR      83  22  10 SW21G32   29.80S
NUCLA          FAIR      77  19  11 SW21G33   29.91F
$$

COZ017>023-064>068-192300-
...SOUTHWEST COLORADO...

CITY           SKY/WX    TMP DP  RH WIND       PRES   REMARKS
DURANGO        FAIR      74  19  12 W17G26    29.96F
CORTEZ         FAIR      79  17  10 SW12G30   29.91F
PAGOSA SPRINGS FAIR      70   9   9 SW14G22   30.03F
TELLURIDE      FAIR      64  15  14 SW15G30   30.08F
WOLF CREEK PAS FAIR      46  16  29 S33G52    30.25S
$$

COZ009-010-012-014-032>034-037-058>063-192300-
...CENTRAL COLORADO...

CITY           SKY/WX    TMP DP  RH WIND       PRES   REMARKS
ASPEN          FAIR      70  18  13 NW10G29   29.89S
BUENA VISTA    FAIR      73  11   9 SW16G36   29.86S
COPPER MTN     FAIR      54  10  17 W29G46    30.13S
BERTHOUD PASS  FAIR      46  39  76 W26G43    30.13F
COTTONWOOD PAS FAIR      64   0   7 W16G41    30.00R
GUNNISON       FAIR      70  23  17 W21G29    29.92R
KREMMLING      FAIR      77  14   9 W16G29    29.83S
LEADVILLE      FAIR      63   9  12 SW16G23   29.98R
MONARCH PASS   FAIR      52  16  24 W48G63    30.23S
SALIDA         FAIR      78  14   9 W18G26    29.91S
SUNLIGHT       CLOUDY    54  25  32 SW13G33   30.09S
WILKERSON PASS FAIR      59   9  13 SW21G38   30.08R
$$

COZ069>075-192300-
...SAN LUIS VALLEY/SANGRE DE CRISTO MOUNTAINS...

CITY           SKY/WX    TMP DP  RH WIND       PRES   REMARKS
ALAMOSA        FAIR      71  16  12 SW26G36   29.93F
DEL NORTE      FAIR      70  20  15 SW22G33   29.95R
LA VETA PASS   FAIR      61  14  16 S32G52    30.16R
SAGUACHE       FAIR      77  19  11 NW20G36   29.86F
$$

COZ035-036-038>040-192300-
...NORTHERN COLORADO FRONT RANGE...

CITY           SKY/WX    TMP DP  RH WIND       PRES   REMARKS
DENVER INTL AP PTSUNNY   88  12   6 N18       29.59S
DMNS CITY PARK   N/A     85  16   8 N13G20    29.59R
AURORA         MOSUNNY   87  13   6 N17G26    29.60R
FRONT RANGE AP MOSUNNY   90  18   7 N9G21     29.60S
ERIE MUNI ARPT FAIR      85  14   7 N10       29.63S
BOULDER MUN AP FAIR      86  27  11 W12G22    29.59S
CENTENNIAL     FAIR      86  10   6 N20       29.61R
BROOMFIELD     MOSUNNY   86  21   9 N10G20    29.63S
FORT COLLINS   FAIR      85  26  11 W23G36    29.60R
LONGMONT       FAIR      89  23   9 W18G29    29.60R
$$

COZ041-046-047-076>085-087-088-192300-
...PIKES PEAK/PALMER DIVIDE AND SOUTHERN FOOTHILLS...

CITY           SKY/WX    TMP DP  RH WIND       PRES   REMARKS
COLO. SPRINGS  PTSUNNY   82  19   9 S21G33    29.70S
A. F. ACADEMY  FAIR      82  12   7 S17G28    29.71R
SCHRIEVER AFB  FAIR      79  17   9 S22G31    29.72F
CHEYENNE MTN   NOT AVBL
ELLICOTT         N/A      1  32 100 SW18G28   29.70F WCI -20
FALCON         FAIR      79  16   9 S24G31    29.76S
FORT CARSON    FAIR      82  13   7 SE20      29.67F
LIMON          FAIR      82  16   8 S22G31    29.63F
MONUMENT HILL  FAIR      81  18   9 W22G35    29.75R
CANON CITY     SUNNY     90  21   8 SW9G20    29.63F
WALSENBURG     FAIR      81  19  10 SW24G45   29.76F
TRINIDAD       FAIR      78  32  18 SW10      29.76F
$$

COZ042>045-048>051-090-091-192300-
...NORTHEAST COLORADO...

CITY           SKY/WX    TMP DP  RH WIND       PRES   REMARKS
GREELEY ARPT   FAIR      87  24  10 W9G26     29.59
AKRON          FAIR      88  16   7 W8        29.58F
BURLINGTON     FAIR      87  21   9 SW25G37   29.59F
WRAY           FAIR      90  18   7 SW12      29.52F
YUMA           FAIR      82   9   6 S9        29.55S
STERLING       FAIR      88  28  11 CALM      29.54S
HOLYOKE        FAIR      88  28  11 S5        29.54R
FORT MORGAN    FAIR      88  14   6 E5        29.58S
$$

COZ086-089-092>099-192300-
...SOUTHEAST COLORADO...

CITY           SKY/WX    TMP DP  RH WIND       PRES   REMARKS
PUEBLO         FAIR      89  20   8 S20G32    29.60F
LA JUNTA       FAIR      86  20   9 S18       29.62F
LAMAR          FAIR      90  18   7 SW20G26   29.58F
SPRINGFIELD    NOT AVBL
$$




USA.gov is the U.S. government's official web portal to all federal, state and local government web resources and services.